weather.gov     
National Weather Service

Terminal Aerodrome Forecast
NWS Homepage
This page is being discontinued on March 12, 2014.
The same data is available at this site. Please update your bookmarks.
Thank you, and we apologize for the inconvenience.
Please send an email to SR-SRH.Webmaster@noaa.gov with any concerns.


Current Version
Previous Version:    01  02  03  04  05  06  07  08  09  10  11  12  13  14  15  16  17  18  19  20  21  22  23  24  25  26  27  28  29  30  
   31  32  33  34  35  36  37  38  39  40  41  42  43  
[Printable]
360
FTUS43 KMQT 241400 AAA
TAFSAW
TAF AMD
KSAW 241433Z 2415/2512 34012G22KT 2SM -RA BR OVC004
     FM241600 34015G25KT 3SM -SNRA BR OVC006
     FM241700 34015G25KT 2SM -SN OVC007
     FM250100 34014G22KT 1SM -SHSN OVC009
     FM251100 33011KT 4SM -SHSN OVC015
      AMD LTD TO CLD VIS AND WIND 2503/2511=


U.S. Dept. of Commerce
NOAA National Weather Service
1325 East West Highway
Silver Spring, MD 20910
E-mail: w-nws.webmaster@noaa.gov
Page last modified: May 16, 2007
NATIONAL WEATHER SERVICE: for Safety, for Work, for Fun - FOR LIFE